EIN456 LEPA-EIDW

Flight info

Callsign EIN456
Flight time 2h 14m
Altitude 34000
Route DRAGO N863 GIROM/N0457F400 DCT AGN DCT SECHE DCT UVELI DCT CNA DCT MANAK UY110 TIRAV UT183 BAGAD DCT DOLUR DCT UPCAB DCT IJALA DCT EVRIN DCT BUNED BUNED4L
Aircraft A333/H-SDE3GHIJ2J3J5M1RVWXY/LB2D1

Departure

Time 2026-05-03 21:06
Airport Palma de Mallorca Airport (LEPA)

Arrival

Time 2026-05-03 23:20
Airport Dublin Airport (EIDW)
Time Latitude Longitude Altitude Speed Heading
2026-05-03 20:26 39.55333 2.73618 -21 ft 0 kts 58°
2026-05-03 20:56 39.55327 2.73606 33 ft 4 kts 58°
2026-05-03 20:56 39.55314 2.73578 31 ft 2 kts 58°
2026-05-03 20:57 39.55305 2.73550 30 ft 4 kts 102°
2026-05-03 20:57 39.55319 2.73527 30 ft 4 kts 150°
2026-05-03 20:57 39.55333 2.73517 30 ft 1 kts 149°
2026-05-03 20:57 39.55335 2.73515 30 ft 0 kts 149°
2026-05-03 20:59 39.55334 2.73516 30 ft 1 kts 149°
2026-05-03 20:59 39.55328 2.73520 31 ft 2 kts 149°
2026-05-03 21:00 39.55304 2.73539 34 ft 5 kts 149°
2026-05-03 21:00 39.55283 2.73555 34 ft 6 kts 149°
2026-05-03 21:00 39.55236 2.73592 34 ft 7 kts 148°
2026-05-03 21:00 39.55209 2.73613 34 ft 5 kts 148°
2026-05-03 21:01 39.55183 2.73642 34 ft 7 kts 128°
2026-05-03 21:01 39.55178 2.73716 34 ft 11 kts 102°
2026-05-03 21:01 39.55168 2.73767 34 ft 8 kts 81°
2026-05-03 21:01 39.55166 2.73847 34 ft 12 kts 127°
2026-05-03 21:02 39.55066 2.73939 34 ft 20 kts 148°
2026-05-03 21:02 39.54950 2.74030 34 ft 19 kts 148°
2026-05-03 21:02 39.54832 2.74115 34 ft 19 kts 165°
2026-05-03 21:02 39.54766 2.74071 34 ft 10 kts 234°
2026-05-03 21:03 39.54720 2.73977 34 ft 15 kts 238°
2026-05-03 21:03 39.54653 2.73838 34 ft 21 kts 238°
2026-05-03 21:03 39.54570 2.73659 34 ft 25 kts 239°
2026-05-03 21:03 39.54470 2.73447 34 ft 30 kts 238°
2026-05-03 21:04 39.54402 2.73306 34 ft 14 kts 238°
2026-05-03 21:04 39.54350 2.73198 34 ft 14 kts 234°
2026-05-03 21:04 39.54285 2.73216 34 ft 10 kts 109°
2026-05-03 21:04 39.54278 2.73310 34 ft 11 kts 94°
2026-05-03 21:05 39.54273 2.73407 34 ft 11 kts 92°
2026-05-03 21:05 39.54291 2.73513 34 ft 16 kts 63°
2026-05-03 21:05 39.54440 2.73842 34 ft 72 kts 58°
2026-05-03 21:05 39.54798 2.74597 34 ft 124 kts 58°
2026-05-03 21:06 39.55331 2.75719 56 ft 164 kts 58°
2026-05-03 21:06 39.55947 2.76999 623 ft 169 kts 58°
2026-05-03 21:06 39.56574 2.78291 1188 ft 173 kts 58°
2026-05-03 21:06 39.57209 2.79636 1787 ft 175 kts 63°
2026-05-03 21:07 39.57798 2.80985 2333 ft 172 kts 64°
2026-05-03 21:07 39.58446 2.82383 2544 ft 192 kts 62°
2026-05-03 21:07 39.59203 2.83947 2693 ft 216 kts 60°
2026-05-03 21:07 39.60041 2.85677 2920 ft 235 kts 60°
2026-05-03 21:08 39.60917 2.87490 3503 ft 237 kts 59°
2026-05-03 21:08 39.61782 2.89292 4152 ft 236 kts 59°
2026-05-03 21:08 39.62810 2.90956 4741 ft 239 kts 39°
2026-05-03 21:08 39.64318 2.91806 5278 ft 238 kts
2026-05-03 21:09 39.65917 2.91426 5735 ft 238 kts 329°
2026-05-03 21:09 39.67104 2.89942 5894 ft 250 kts 295°
2026-05-03 21:09 39.67465 2.87694 6131 ft 265 kts 268°
2026-05-03 21:09 39.67604 2.85292 6903 ft 267 kts 276°
2026-05-03 21:10 39.67917 2.82930 7833 ft 264 kts 277°
2026-05-03 21:10 39.68211 2.80577 8684 ft 264 kts 275°
2026-05-03 21:10 39.68414 2.78195 9472 ft 266 kts 271°
2026-05-03 21:10 39.68500 2.75786 10205 ft 270 kts 270°
2026-05-03 21:11 39.68825 2.73295 10542 ft 294 kts 287°
2026-05-03 21:11 39.69788 2.70813 10736 ft 319 kts 294°
2026-05-03 21:11 39.70796 2.68164 11055 ft 334 kts 292°
2026-05-03 21:11 39.71770 2.65427 11533 ft 342 kts 291°
2026-05-03 21:12 39.72753 2.62571 12041 ft 350 kts 290°
2026-05-03 21:12 39.73747 2.59645 12548 ft 356 kts 290°
2026-05-03 21:12 39.74743 2.56687 13058 ft 359 kts 290°
2026-05-03 21:12 39.75746 2.53696 13580 ft 361 kts 289°
2026-05-03 21:13 39.76751 2.50688 14067 ft 363 kts 289°
2026-05-03 21:13 39.77760 2.47665 14551 ft 366 kts 289°
2026-05-03 21:13 39.78772 2.44622 15021 ft 369 kts 290°
2026-05-03 21:13 39.79798 2.41536 15532 ft 372 kts 289°
2026-05-03 21:14 39.80816 2.38473 16147 ft 373 kts 289°
2026-05-03 21:14 39.81843 2.35377 16779 ft 373 kts 289°
2026-05-03 21:14 39.82866 2.32280 17425 ft 373 kts 289°
2026-05-03 21:14 39.83881 2.29163 18085 ft 372 kts 289°
2026-05-03 21:15 39.84889 2.26057 18692 ft 372 kts 288°
2026-05-03 21:15 39.85891 2.22963 19274 ft 371 kts 289°
2026-05-03 21:15 39.86891 2.19877 19875 ft 370 kts 289°
2026-05-03 21:15 39.87889 2.16798 20474 ft 368 kts 289°
2026-05-03 21:16 39.88874 2.13752 21245 ft 360 kts 288°
2026-05-03 21:16 39.89829 2.10801 22277 ft 346 kts 288°
2026-05-03 21:16 39.90745 2.07969 23275 ft 334 kts 288°
2026-05-03 21:16 39.91637 2.05198 23877 ft 331 kts 288°
2026-05-03 21:17 39.92531 2.02401 24137 ft 338 kts 288°
2026-05-03 21:17 39.93132 2.00520 24287 ft 343 kts 288°
2026-05-03 21:17 39.94365 1.96666 24613 ft 351 kts 288°
2026-05-03 21:17 39.95313 1.93702 24832 ft 358 kts 288°
2026-05-03 21:18 39.96279 1.90682 25094 ft 364 kts 288°
2026-05-03 21:18 39.97262 1.87606 25342 ft 369 kts 288°
2026-05-03 21:18 39.98298 1.84532 25756 ft 370 kts 292°
2026-05-03 21:18 39.99559 1.81640 26540 ft 362 kts 299°
2026-05-03 21:19 40.01064 1.79081 27551 ft 348 kts 306°
2026-05-03 21:19 40.02763 1.76891 28399 ft 341 kts 314°
2026-05-03 21:19 40.04673 1.75027 28849 ft 346 kts 322°
2026-05-03 21:19 40.06809 1.73504 29120 ft 353 kts 328°
2026-05-03 21:20 40.09069 1.72187 29399 ft 358 kts 331°
2026-05-03 21:20 40.11368 1.70975 29673 ft 362 kts 333°
2026-05-03 21:20 40.13740 1.69785 29829 ft 368 kts 333°
2026-05-03 21:20 40.16157 1.68588 29920 ft 376 kts 333°
2026-05-03 21:21 40.21143 1.66095 30108 ft 390 kts 333°
2026-05-03 21:21 40.26298 1.63465 30269 ft 405 kts 334°
2026-05-03 21:22 40.31628 1.60719 30409 ft 419 kts 334°
2026-05-03 21:22 40.37140 1.57869 30603 ft 431 kts 334°
2026-05-03 21:23 40.39897 1.56446 31023 ft 427 kts 334°
2026-05-03 21:23 40.42657 1.55027 31758 ft 415 kts 333°
2026-05-03 21:23 40.45271 1.53684 32476 ft 404 kts 333°
2026-05-03 21:23 40.47882 1.52335 32780 ft 405 kts 333°
2026-05-03 21:24 40.53184 1.49568 32943 ft 415 kts 333°
2026-05-03 21:24 40.58626 1.46724 33075 ft 426 kts 333°
2026-05-03 21:25 40.64210 1.43809 33209 ft 436 kts 333°
2026-05-03 21:25 40.69911 1.40834 33534 ft 441 kts 333°
2026-05-03 21:26 40.72703 1.39381 34052 ft 434 kts 333°
2026-05-03 21:26 40.75493 1.37930 34524 ft 427 kts 333°
2026-05-03 21:26 40.78237 1.36500 34990 ft 420 kts 333°
2026-05-03 21:26 40.80924 1.35098 35482 ft 412 kts 332°
2026-05-03 21:27 40.83583 1.33704 35767 ft 410 kts 332°
2026-05-03 21:27 40.86231 1.32311 35976 ft 409 kts 332°
2026-05-03 21:27 40.91580 1.29483 36032 ft 419 kts 332°
2026-05-03 21:28 40.97061 1.26583 36020 ft 429 kts 332°
2026-05-03 21:28 41.02679 1.23615 36021 ft 439 kts 333°
2026-05-03 21:29 41.08376 1.20604 36024 ft 448 kts 333°
2026-05-03 21:29 41.14326 1.17765 36028 ft 464 kts 341°
2026-05-03 21:30 41.20822 1.16466 36022 ft 478 kts 349°
2026-05-03 21:30 41.27529 1.15697 36023 ft 488 kts 351°
2026-05-03 21:31 41.34328 1.15036 36040 ft 496 kts 351°
2026-05-03 21:31 41.41263 1.14350 36018 ft 501 kts 351°
2026-05-03 21:32 41.48201 1.13639 36352 ft 496 kts 351°
2026-05-03 21:32 41.51619 1.13285 36826 ft 490 kts 351°
2026-05-03 21:32 41.55024 1.12928 37005 ft 490 kts 351°
2026-05-03 21:33 41.61867 1.12197 37184 ft 493 kts 351°
2026-05-03 21:33 41.65272 1.11837 37578 ft 488 kts 351°
2026-05-03 21:33 41.68635 1.11483 38091 ft 480 kts 350°
2026-05-03 21:34 41.71891 1.11142 38637 ft 472 kts 350°
2026-05-03 21:34 41.75158 1.10800 39090 ft 463 kts 350°
2026-05-03 21:34 41.78338 1.10465 39554 ft 453 kts 350°
2026-05-03 21:34 41.81452 1.10136 39923 ft 446 kts 350°
2026-05-03 21:35 41.84497 1.09810 40172 ft 442 kts 350°
2026-05-03 21:35 41.87524 1.09486 40600 ft 431 kts 350°
2026-05-03 21:35 41.90498 1.09169 40928 ft 425 kts 350°
2026-05-03 21:35 41.93450 1.08851 40990 ft 425 kts 350°
2026-05-03 21:36 41.99364 1.08206 41007 ft 427 kts 350°
2026-05-03 21:36 42.05292 1.07562 40859 ft 435 kts 350°
2026-05-03 21:37 42.08358 1.07228 40613 ft 444 kts 350°
2026-05-03 21:37 42.11480 1.06887 40375 ft 453 kts 351°
2026-05-03 21:37 42.14646 1.06543 40149 ft 461 kts 351°
2026-05-03 21:37 42.17833 1.06200 40032 ft 467 kts 351°
2026-05-03 21:38 42.24368 1.05499 40033 ft 473 kts 351°
2026-05-03 21:38 42.30970 1.04787 40034 ft 478 kts 351°
2026-05-03 21:39 42.37647 1.04065 40035 ft 483 kts 351°
2026-05-03 21:39 42.44381 1.03336 40033 ft 488 kts 351°
2026-05-03 21:40 42.51181 1.02598 40037 ft 492 kts 351°
2026-05-03 21:40 42.57991 1.01859 40012 ft 495 kts 351°
2026-05-03 21:41 42.64876 1.01109 40022 ft 497 kts 351°
2026-05-03 21:41 42.70666 1.00475 40011 ft 498 kts 351°
2026-05-03 21:42 42.77531 0.99723 39997 ft 498 kts 351°
2026-05-03 21:42 42.84453 0.98961 39996 ft 498 kts 351°
2026-05-03 21:43 42.92492 0.98074 39985 ft 498 kts 351°
2026-05-03 21:43 42.98284 0.97437 39985 ft 498 kts 351°
2026-05-03 21:44 43.05195 0.96675 39977 ft 498 kts 351°
2026-05-03 21:44 43.12080 0.95913 39966 ft 499 kts 351°
2026-05-03 21:45 43.19005 0.95144 39962 ft 499 kts 351°
2026-05-03 21:45 43.25943 0.94372 39968 ft 499 kts 351°
2026-05-03 21:46 43.32825 0.93604 39962 ft 500 kts 351°
2026-05-03 21:46 43.39764 0.92828 39965 ft 500 kts 351°
2026-05-03 21:47 43.46719 0.92049 39965 ft 500 kts 351°
2026-05-03 21:47 43.53660 0.91269 39966 ft 501 kts 351°
2026-05-03 21:48 43.60569 0.90491 39967 ft 501 kts 351°
2026-05-03 21:48 43.67324 0.88677 39968 ft 490 kts 337°
2026-05-03 21:49 43.73704 0.85396 39966 ft 488 kts 333°
2026-05-03 21:49 43.79949 0.81741 39965 ft 487 kts 332°
2026-05-03 21:50 43.86172 0.78018 39970 ft 487 kts 332°
2026-05-03 21:50 43.92407 0.74316 39970 ft 487 kts 332°
2026-05-03 21:51 43.98657 0.70627 39964 ft 488 kts 332°
2026-05-03 21:51 44.04911 0.66938 39974 ft 488 kts 332°
2026-05-03 21:52 44.11133 0.63260 39968 ft 489 kts 332°
2026-05-03 21:52 44.17394 0.59549 39966 ft 489 kts 332°
2026-05-03 21:53 44.23650 0.55832 39966 ft 489 kts 332°
2026-05-03 21:53 44.29901 0.52109 39967 ft 489 kts 332°
2026-05-03 21:54 44.36172 0.48365 39969 ft 488 kts 331°
2026-05-03 21:54 44.42421 0.44626 39977 ft 488 kts 332°
2026-05-03 21:55 44.48642 0.40893 39964 ft 490 kts 331°
2026-05-03 21:55 44.54915 0.37121 39967 ft 490 kts 332°
2026-05-03 21:56 44.61210 0.33325 39974 ft 494 kts 332°
2026-05-03 21:56 44.67527 0.29511 39979 ft 494 kts 332°
2026-05-03 21:57 44.73852 0.25683 39983 ft 495 kts 332°
2026-05-03 21:57 44.80176 0.21846 39982 ft 495 kts 332°
2026-05-03 21:58 44.86465 0.18020 39981 ft 495 kts 332°
2026-05-03 21:58 44.92785 0.14166 39973 ft 495 kts 332°
2026-05-03 21:59 44.99113 0.10298 39968 ft 495 kts 332°
2026-05-03 21:59 45.05435 0.06423 39969 ft 495 kts 332°
2026-05-03 22:00 45.11767 0.02533 39971 ft 496 kts 332°
2026-05-03 22:00 45.18056 -0.01340 39983 ft 496 kts 332°
2026-05-03 22:01 45.24393 -0.05252 39972 ft 497 kts 332°
2026-05-03 22:01 45.30737 -0.09178 39969 ft 498 kts 332°
2026-05-03 22:02 45.37098 -0.13122 39969 ft 498 kts 332°
2026-05-03 22:02 45.43447 -0.17070 39971 ft 498 kts 332°
2026-05-03 22:03 45.49793 -0.21026 39969 ft 498 kts 332°
2026-05-03 22:03 45.56104 -0.24968 39967 ft 498 kts 332°
2026-05-03 22:04 45.62460 -0.28949 39966 ft 498 kts 331°
2026-05-03 22:04 45.68342 -0.33962 39967 ft 490 kts 320°
2026-05-03 22:05 45.73789 -0.39831 39974 ft 489 kts 317°
2026-05-03 22:05 45.79132 -0.45889 39977 ft 489 kts 316°
2026-05-03 22:06 45.84449 -0.51965 39968 ft 489 kts 316°
2026-05-03 22:06 45.89742 -0.57996 39970 ft 489 kts 317°
2026-05-03 22:07 45.90618 -0.58993 39969 ft 489 kts 317°
2026-05-03 22:07 45.94046 -0.62893 39970 ft 488 kts 317°
2026-05-03 22:08 45.99383 -0.68975 39962 ft 489 kts 317°
2026-05-03 22:08 46.04726 -0.75078 39969 ft 490 kts 316°
2026-05-03 22:09 46.10023 -0.81145 39963 ft 490 kts 317°
2026-05-03 22:10 46.18055 -0.90376 39967 ft 492 kts 317°
2026-05-03 22:10 46.23417 -0.96558 39964 ft 493 kts 317°
2026-05-03 22:11 46.28775 -1.02751 39965 ft 493 kts 317°
2026-05-03 22:11 46.34117 -1.08944 39963 ft 492 kts 317°
2026-05-03 22:12 46.39472 -1.15166 39966 ft 492 kts 317°
2026-05-03 22:12 46.44777 -1.21346 39984 ft 492 kts 317°
2026-05-03 22:13 46.50107 -1.27571 39982 ft 492 kts 317°
2026-05-03 22:13 46.55433 -1.33808 39992 ft 491 kts 317°
2026-05-03 22:14 46.60605 -1.40296 39993 ft 489 kts 311°
2026-05-03 22:14 46.65372 -1.47263 39992 ft 488 kts 310°
2026-05-03 22:15 46.70081 -1.54393 39992 ft 488 kts 310°
2026-05-03 22:15 46.74771 -1.61556 39984 ft 488 kts 310°
2026-05-03 22:16 46.79442 -1.68692 39980 ft 488 kts 310°
2026-05-03 22:16 46.84147 -1.75885 39971 ft 488 kts 310°
2026-05-03 22:17 46.88840 -1.83075 39965 ft 488 kts 310°
2026-05-03 22:17 46.93495 -1.90225 39962 ft 488 kts 309°
2026-05-03 22:18 46.98184 -1.97448 39969 ft 489 kts 309°
2026-05-03 22:18 47.02891 -2.04635 39965 ft 489 kts 310°
2026-05-03 22:19 47.07684 -2.11755 39959 ft 490 kts 311°
2026-05-03 22:19 47.12460 -2.18825 39965 ft 490 kts 311°
2026-05-03 22:20 47.17265 -2.25975 39974 ft 490 kts 311°
2026-05-03 22:20 47.22046 -2.33124 39963 ft 490 kts 311°
2026-05-03 22:21 47.26819 -2.40286 39965 ft 490 kts 311°
2026-05-03 22:21 47.31592 -2.47469 39963 ft 490 kts 311°
2026-05-03 22:22 47.36322 -2.54603 39976 ft 489 kts 311°
2026-05-03 22:22 47.41075 -2.61791 39963 ft 489 kts 311°
2026-05-03 22:23 47.45836 -2.69011 39964 ft 490 kts 311°
2026-05-03 22:23 47.50589 -2.76237 39965 ft 490 kts 311°
2026-05-03 22:24 47.55303 -2.83422 39960 ft 489 kts 311°
2026-05-03 22:24 47.60389 -2.90189 39966 ft 493 kts 319°
2026-05-03 22:25 47.65851 -2.96363 39784 ft 492 kts 320°
2026-05-03 22:25 47.68608 -2.99386 39502 ft 491 kts 321°
2026-05-03 22:25 47.71365 -3.02389 39083 ft 493 kts 321°
2026-05-03 22:25 47.74101 -3.05372 38668 ft 495 kts 320°
2026-05-03 22:26 47.76874 -3.08402 38117 ft 496 kts 320°
2026-05-03 22:26 47.79655 -3.11452 37583 ft 497 kts 320°
2026-05-03 22:26 47.82440 -3.14518 37058 ft 499 kts 320°
2026-05-03 22:26 47.85240 -3.17609 36550 ft 501 kts 320°
2026-05-03 22:27 47.88039 -3.20705 36052 ft 503 kts 320°
2026-05-03 22:27 47.90852 -3.23822 35572 ft 505 kts 319°
2026-05-03 22:27 47.93675 -3.26955 35086 ft 506 kts 319°
2026-05-03 22:27 47.96514 -3.30110 34670 ft 509 kts 319°
2026-05-03 22:28 47.99324 -3.33236 34458 ft 511 kts 319°
2026-05-03 22:28 48.02167 -3.36403 34228 ft 511 kts 319°
2026-05-03 22:28 48.05026 -3.39593 34022 ft 512 kts 319°
2026-05-03 22:29 48.10732 -3.45970 33968 ft 511 kts 319°
2026-05-03 22:29 48.16431 -3.52358 33966 ft 510 kts 319°
2026-05-03 22:30 48.22103 -3.58737 33971 ft 509 kts 319°
2026-05-03 22:30 48.27715 -3.65066 33973 ft 508 kts 319°
2026-05-03 22:31 48.33364 -3.71456 33958 ft 508 kts 319°
2026-05-03 22:31 48.39017 -3.77869 33964 ft 507 kts 319°
2026-05-03 22:32 48.44647 -3.84271 33957 ft 506 kts 319°
2026-05-03 22:32 48.50233 -3.90639 33967 ft 506 kts 320°
2026-05-03 22:33 48.55838 -3.97047 33965 ft 505 kts 320°
2026-05-03 22:33 48.61424 -4.03452 33960 ft 504 kts 320°
2026-05-03 22:34 48.67011 -4.09878 33957 ft 503 kts 320°
2026-05-03 22:34 48.72586 -4.16307 33962 ft 503 kts 320°
2026-05-03 22:35 48.78118 -4.22705 33961 ft 503 kts 320°
2026-05-03 22:35 48.83680 -4.29157 33958 ft 503 kts 320°
2026-05-03 22:36 48.89206 -4.35586 33954 ft 503 kts 320°
2026-05-03 22:36 48.93872 -4.41029 33968 ft 502 kts 320°
2026-05-03 22:37 48.99405 -4.47502 33963 ft 502 kts 320°
2026-05-03 22:37 49.04912 -4.53962 33955 ft 501 kts 320°
2026-05-03 22:38 49.10431 -4.60455 33955 ft 501 kts 320°
2026-05-03 22:38 49.15949 -4.66967 33953 ft 501 kts 320°
2026-05-03 22:39 49.21467 -4.73497 33955 ft 501 kts 320°
2026-05-03 22:39 49.26933 -4.79984 33947 ft 500 kts 320°
2026-05-03 22:40 49.32426 -4.86522 33949 ft 500 kts 320°
2026-05-03 22:40 49.37919 -4.93083 33952 ft 500 kts 320°
2026-05-03 22:41 49.43414 -4.99665 33948 ft 500 kts 320°
2026-05-03 22:41 49.48996 -5.05955 33948 ft 501 kts 327°
2026-05-03 22:42 49.54996 -5.11423 33950 ft 501 kts 328°
2026-05-03 22:42 49.61076 -5.16699 33946 ft 501 kts 329°
2026-05-03 22:43 49.67147 -5.21929 33955 ft 502 kts 329°
2026-05-03 22:43 49.73241 -5.27212 33946 ft 502 kts 329°
2026-05-03 22:44 49.79327 -5.32522 33940 ft 502 kts 329°
2026-05-03 22:44 49.85407 -5.37849 33944 ft 502 kts 329°
2026-05-03 22:45 49.91487 -5.43193 33940 ft 502 kts 329°
2026-05-03 22:45 49.97558 -5.48544 33945 ft 501 kts 329°
2026-05-03 22:46 50.03571 -5.53858 33943 ft 500 kts 329°
2026-05-03 22:46 50.09614 -5.59216 33934 ft 500 kts 329°
2026-05-03 22:47 50.15659 -5.64590 33944 ft 499 kts 329°
2026-05-03 22:47 50.21704 -5.69980 33937 ft 499 kts 329°
2026-05-03 22:48 50.27700 -5.75340 33946 ft 499 kts 329°
2026-05-03 22:48 50.33730 -5.80748 33945 ft 500 kts 329°
2026-05-03 22:49 50.39766 -5.86177 33945 ft 500 kts 329°
2026-05-03 22:49 50.45802 -5.91623 33944 ft 500 kts 329°
2026-05-03 22:50 50.51839 -5.97085 33946 ft 500 kts 329°
2026-05-03 22:50 50.57820 -6.02513 33944 ft 499 kts 329°
2026-05-03 22:51 50.63838 -6.07991 33934 ft 500 kts 329°
2026-05-03 22:51 50.69858 -6.13488 33945 ft 499 kts 329°
2026-05-03 22:52 50.75865 -6.18990 33951 ft 499 kts 329°
2026-05-03 22:52 50.81870 -6.24505 33954 ft 499 kts 329°
2026-05-03 22:53 50.87934 -6.29858 33952 ft 499 kts 335°
2026-05-03 22:53 50.94508 -6.33091 33937 ft 498 kts 347°
2026-05-03 22:54 51.01310 -6.35285 33955 ft 499 kts 349°
2026-05-03 22:54 51.08142 -6.37243 33959 ft 499 kts 349°
2026-05-03 22:55 51.14987 -6.39209 33949 ft 499 kts 349°
2026-05-03 22:55 51.21809 -6.41217 33955 ft 498 kts 349°
2026-05-03 22:56 51.28625 -6.43238 33951 ft 497 kts 350°
2026-05-03 22:56 51.32031 -6.44183 33800 ft 496 kts 351°
2026-05-03 22:56 51.35444 -6.45086 33528 ft 497 kts 351°
2026-05-03 22:56 51.38858 -6.45969 33253 ft 497 kts 351°
2026-05-03 22:57 51.42277 -6.46849 32978 ft 497 kts 352°
2026-05-03 22:57 51.45645 -6.47719 32715 ft 496 kts 352°
2026-05-03 22:57 51.49055 -6.48606 32452 ft 495 kts 352°
2026-05-03 22:57 51.52459 -6.49496 32194 ft 495 kts 352°
2026-05-03 22:58 51.55852 -6.50388 31937 ft 495 kts 352°
2026-05-03 22:58 51.59260 -6.51286 31683 ft 496 kts 352°
2026-05-03 22:58 51.62669 -6.52187 31422 ft 496 kts 352°
2026-05-03 22:58 51.66066 -6.53088 31161 ft 494 kts 352°
2026-05-03 22:59 51.69456 -6.53988 30937 ft 493 kts 352°
2026-05-03 22:59 51.72842 -6.54888 30680 ft 493 kts 352°
2026-05-03 22:59 51.76235 -6.55790 30427 ft 493 kts 353°
2026-05-03 22:59 51.79646 -6.56318 30186 ft 491 kts 358°
2026-05-03 23:00 51.83059 -6.56656 29928 ft 490 kts 359°
2026-05-03 23:00 51.86403 -6.56945 29585 ft 484 kts 359°
2026-05-03 23:00 51.89719 -6.57217 29153 ft 473 kts 359°
2026-05-03 23:00 51.92974 -6.57478 28723 ft 462 kts 359°
2026-05-03 23:01 51.96187 -6.57733 28309 ft 463 kts 359°
2026-05-03 23:01 51.99410 -6.57985 27902 ft 464 kts 359°
2026-05-03 23:01 52.02626 -6.58238 27503 ft 462 kts 359°
2026-05-03 23:01 52.05835 -6.58491 27094 ft 460 kts 359°
2026-05-03 23:02 52.09020 -6.58743 26683 ft 457 kts 359°
2026-05-03 23:02 52.12167 -6.58993 26155 ft 449 kts 359°
2026-05-03 23:02 52.15277 -6.59241 25642 ft 442 kts 359°
2026-05-03 23:02 52.18282 -6.59481 25151 ft 435 kts 359°
2026-05-03 23:03 52.21292 -6.59721 24586 ft 430 kts 359°
2026-05-03 23:03 52.24266 -6.59958 23961 ft 427 kts 360°
2026-05-03 23:03 52.27230 -6.60194 23305 ft 424 kts 360°
2026-05-03 23:03 52.30165 -6.60427 22586 ft 421 kts 359°
2026-05-03 23:04 52.33072 -6.60658 21876 ft 417 kts 359°
2026-05-03 23:04 52.35978 -6.60890 21109 ft 416 kts 359°
2026-05-03 23:04 52.38859 -6.61120 20343 ft 415 kts 359°
2026-05-03 23:04 52.41737 -6.61350 19594 ft 413 kts 359°
2026-05-03 23:05 52.44604 -6.61580 19010 ft 411 kts 359°
2026-05-03 23:05 52.47435 -6.61807 18535 ft 413 kts 359°
2026-05-03 23:05 52.50311 -6.62039 18027 ft 412 kts 359°
2026-05-03 23:05 52.53166 -6.62269 17486 ft 409 kts 359°
2026-05-03 23:06 52.56003 -6.62499 16937 ft 407 kts 359°
2026-05-03 23:06 52.58821 -6.62727 16422 ft 404 kts 359°
2026-05-03 23:06 52.61620 -6.62953 15903 ft 400 kts 359°
2026-05-03 23:06 52.64390 -6.63179 15389 ft 394 kts 359°
2026-05-03 23:07 52.67124 -6.63401 14896 ft 391 kts 358°
2026-05-03 23:07 52.69799 -6.63619 14327 ft 388 kts 358°
2026-05-03 23:07 52.72487 -6.63837 13710 ft 385 kts 358°
2026-05-03 23:07 52.75151 -6.64054 13022 ft 382 kts 358°
2026-05-03 23:08 52.77802 -6.64294 12381 ft 379 kts 355°
2026-05-03 23:08 52.80389 -6.65050 11736 ft 377 kts 346°
2026-05-03 23:08 52.82879 -6.66356 11103 ft 374 kts 341°
2026-05-03 23:08 52.85310 -6.67837 10489 ft 370 kts 340°
2026-05-03 23:09 52.87706 -6.69369 9930 ft 366 kts 339°
2026-05-03 23:09 52.90065 -6.70905 9398 ft 362 kts 339°
2026-05-03 23:09 52.92400 -6.72437 8867 ft 360 kts 339°
2026-05-03 23:09 52.94721 -6.73966 8344 ft 357 kts 339°
2026-05-03 23:10 52.96993 -6.75465 7835 ft 355 kts 339°
2026-05-03 23:10 52.99283 -6.76978 7432 ft 353 kts 339°
2026-05-03 23:10 53.01554 -6.78483 7185 ft 351 kts 339°
2026-05-03 23:10 53.03818 -6.79984 6930 ft 349 kts 339°
2026-05-03 23:11 53.06071 -6.81480 6698 ft 348 kts 339°
2026-05-03 23:11 53.08317 -6.82973 6448 ft 346 kts 339°
2026-05-03 23:11 53.10550 -6.84458 6191 ft 345 kts 339°
2026-05-03 23:11 53.12782 -6.85945 5928 ft 344 kts 339°
2026-05-03 23:12 53.14998 -6.87422 5671 ft 343 kts 340°
2026-05-03 23:12 53.17213 -6.88901 5414 ft 342 kts 340°
2026-05-03 23:12 53.19386 -6.90353 5156 ft 341 kts 340°
2026-05-03 23:12 53.21634 -6.91581 4906 ft 338 kts 353°
2026-05-03 23:13 53.23957 -6.91532 4644 ft 333 kts
2026-05-03 23:13 53.26212 -6.90688 4399 ft 331 kts 17°
2026-05-03 23:13 53.28419 -6.89589 4134 ft 329 kts 18°
2026-05-03 23:13 53.30607 -6.88477 3991 ft 328 kts 18°
2026-05-03 23:14 53.32789 -6.87372 3982 ft 327 kts 18°
2026-05-03 23:14 53.34960 -6.86271 3982 ft 326 kts 18°
2026-05-03 23:14 53.37130 -6.85170 3984 ft 320 kts 18°
2026-05-03 23:14 53.39188 -6.84128 3982 ft 297 kts 18°
2026-05-03 23:15 53.40993 -6.82982 3975 ft 264 kts 33°
2026-05-03 23:15 53.42229 -6.80975 3976 ft 236 kts 54°
2026-05-03 23:15 53.43073 -6.78727 3988 ft 218 kts 63°
2026-05-03 23:15 53.43646 -6.76482 3983 ft 201 kts 68°
2026-05-03 23:16 53.44125 -6.74385 3981 ft 183 kts 68°
2026-05-03 23:16 53.44553 -6.72480 3975 ft 166 kts 68°
2026-05-03 23:16 53.44940 -6.70743 3971 ft 153 kts 68°
2026-05-03 23:16 53.45294 -6.69101 3978 ft 148 kts 68°
2026-05-03 23:17 53.45638 -6.67481 3982 ft 147 kts 70°
2026-05-03 23:17 53.45803 -6.65785 3982 ft 149 kts 86°
2026-05-03 23:17 53.45738 -6.64051 3981 ft 149 kts 90°
2026-05-03 23:17 53.45640 -6.62319 3981 ft 149 kts 91°
2026-05-03 23:18 53.45530 -6.60603 3968 ft 142 kts 92°
2026-05-03 23:18 53.45425 -6.59067 3883 ft 124 kts 92°
2026-05-03 23:18 53.45293 -6.57645 3458 ft 128 kts 91°
2026-05-03 23:18 53.45174 -6.56243 3224 ft 116 kts 92°
2026-05-03 23:19 53.45132 -6.54762 2647 ft 131 kts 87°
2026-05-03 23:19 53.45121 -6.53307 2448 ft 120 kts 86°
2026-05-03 23:19 53.45118 -6.51905 1911 ft 132 kts 84°
2026-05-03 23:19 53.45159 -6.50454 1713 ft 115 kts 86°
2026-05-03 23:20 53.45195 -6.49053 1102 ft 125 kts 81°
2026-05-03 23:20 53.45256 -6.47649 756 ft 120 kts 83°
2026-05-03 23:20 53.45319 -6.46282 351 ft 121 kts 85°
2026-05-03 23:20 53.45346 -6.45753 268 ft 0 kts 86°
2026-05-03 23:21 53.45346 -6.45750 264 ft 0 kts 87°